Regional Weather Roundup
Issued by NWS Upton, NY

Home | Current Version | Previous Version | Text Only | Print | Product List | Glossary On
Versions: 1 2 3 4 5 6 7 8 9 10 11 12 13 14 15 16 17 18 19 20 21 22 23 24 25 26 27 28 29 30 31 32 33 34 35 36 37 38 39 40 41 42 43 44 45 46 47 48 49 50
000
ASUS41 KOKX 180809
RWROKX

REGIONAL WEATHER ROUNDUP
NATIONAL WEATHER SERVICE NEW YORK NY
400 AM EDT FRI AUG 18 2017

NOTE: "FAIR" INDICATES FEW OR NO CLOUDS BELOW 12,000 FEET WITH NO
SIGNIFICANT WEATHER AND/OR OBSTRUCTIONS TO VISIBILITY.

NYZ071-072-176-178-NJZ106-104-180900-
NEW YORK CITY METRO AREA

CITY           SKY/WX    TMP DP  RH WIND       PRES   REMARKS
Central Park   MOCLDY    76  71  85 VRB5      29.94S
Bronx Bot Gard   N/A     75  70  83 E2        29.93F
LaGuardia APRT CLOUDY    76  74  93 S9        29.90F
Kennedy INTL   CLOUDY    75  75 100 S12       29.92F
Breezy Point     N/A     73 N/A N/A S9          N/A
Newark/Liberty CLOUDY    75  71  87 S6        29.91S
Teterboro      CLOUDY    76  72  87 S9        29.89F
$$

NYZ177-179-078>081-180900-
LONG ISLAND NEW YORK

CITY           SKY/WX    TMP DP  RH WIND       PRES   REMARKS
Jones Beach      N/A     73 N/A N/A S8          N/A
Matinecock PT    N/A     75 N/A N/A SW6         N/A
Farmingdale    CLOUDY    75  73  93 S10       29.93S
MacArthur/ISP  CLOUDY    75  74  96 S6        29.93S
Shirley        CLOUDY    75  74  96 SE9       29.94F
Mt Sinai Harb    N/A    N/A N/A N/A S8          N/A
Westhampton    CLOUDY    73  70  90 SE7       29.96F
East Hampton   CLOUDY    71  69  96 SE7       29.95F
Montauk          N/A     71  70  96 VRB6      29.97F
$$

NYZ052-065-067-180900-
HUDSON VALLEY

CITY           SKY/WX    TMP DP  RH WIND       PRES   REMARKS
White Plains   MOCLDY    73  71  93 E5        29.92F FOG
Larchmont Harb   N/A     75 N/A N/A S12         N/A
Croton On Huds   N/A     73 N/A N/A E1          N/A
Newburgh       CLOUDY    72  70  94 VRB6      29.92F
Montgomery     CLOUDY    71  67  87 N3        29.89F
Poughkeepsie   CLOUDY    71  67  87 SE5       29.89F
Albany         CLOUDY    72  62  71 S8        29.86F
$$

NJZ001-105-106-008-010-013-015-019>022-104-180900-
NEW JERSEY

CITY           SKY/WX    TMP DP  RH WIND       PRES   REMARKS
Newark/Liberty CLOUDY    75  71  87 S6        29.91S
Teterboro      CLOUDY    76  72  87 S9        29.89F
Caldwell       CLOUDY    75  71  87 VRB5      29.91F
Somerville     CLOUDY    72  71  97 S3        29.89F FOG
Linden         PTSUNNY   75  69  81 CALM      29.91S
Perth Amboy      N/A     73 N/A N/A S6          N/A
Sussex         CLOUDY    69  68  96 CALM      29.90F
Andover          N/A     72  69  90 SW5       29.91F
Trenton        CLOUDY    73  69  87 S7        29.90F
Millville      PTCLDY    77  74  90 VRB5      29.90F
Atlantic City  MOCLDY    77  71  82 S8        29.91F
Wrightstown    CLOUDY    74  71  90 S8        29.88F
Toms River     CLOUDY    74  72  93 S8        29.92F
Belmar         CLOUDY    75  71  87 S5        29.93S
$$

PAZ047>061-062-071-180900-
EASTERN PENNSYLVANIA

CITY           SKY/WX    TMP DP  RH WIND       PRES   REMARKS
Philadelphia   CLOUDY    76  69  79 S8        29.89F
Allentown      CLOUDY    76  69  79 S7        29.88F
Scranton       LGT RAIN  74  72  93 VRB5      29.87R
$$

CTZ002-004>006-009-010-012-RIZ004-006-007-MAZ004-011-015-180900-
SOUTHERN NEW ENGLAND
 IN CT

CITY           SKY/WX    TMP DP  RH WIND       PRES   REMARKS
Bradley INTL   CLOUDY    69  62  78 S6        29.94F
Hartford       CLOUDY    70  65  84 S5        29.93F
Danbury        CLOUDY    71  69  93 SE6       29.94F FOG
Wtrbury/Oxford CLOUDY    69  68  96 SE9       29.96F FOG
Norwalk Harbor   N/A     73 N/A N/A E9          N/A
Bridgeport     CLOUDY    73  71  93 SE8       29.92F
Meriden        CLOUDY    70  67  90 SE3       29.93F
New Haven      CLOUDY    73  70  90 SE7       29.94F
Chester        NOT AVBL
Groton         CLOUDY    69  66  90 E5        29.95F
Wilimantic     CLOUDY    65  62  90 CALM      29.96F

 IN RI

CITY           SKY/WX    TMP DP  RH WIND       PRES   REMARKS
Providence     CLOUDY    66  63  90 E3        29.98F
Block Island   CLOUDY    70  67  90 S10       29.97F
Westerly       CLOUDY    65  62  90 CALM      29.97F
 IN MA

CITY           SKY/WX    TMP DP  RH WIND       PRES   REMARKS
Boston         MOCLDY    65  59  81 S7        29.97F
Worcester      CLOUDY    65  55  70 SW6       29.97F
Westfield      CLOUDY    67  61  81 CALM      29.94F
Provincetown   PTCLDY    67  64  90 SW7       29.99F
Nantucket      PTCLDY    65  65 100 S7        30.00F
$$

ANZ330-335-338-340-345-350-353-355-180900-
COASTAL MARINE OBSERVATIONS


STATION/POSITION TIME  SKY/WX   TEMP    WIND        PRES    VSBY  WAVE
                                AIR SEA DIR/SP/G                  HT/PER
                 (UTC)          (F)     (DEG/KT/KT) (MB)    (MI)  (FT/S)
NY HARB ENTRANCE 0750            76 75  180/ 14/ 17 1012.3          3/ 8
GREAT SOUTH BAY  0730            75 78  160/ 10/ 12   N/A
23 SSW MONTAUK P 0750            72 72              1014.7          3/ 8
15 E BARNEGAT LI 0730               76                N/A           3/ 7
HUDSON CANYON    0750            75 75  180/ 12/ 14 1013.6          2/ 8
KINGS POINT      0736            76 75  210/ 10/ 14 1012.7
EXECUTION ROCKS  NOT AVBL
WESTERN LI SOUND NOT AVBL
CENTRAL LI SOUND NOT AVBL
EASTERN LI SOUND NOT AVBL
ROBBINS REEF     0730                   180/  9/ 11 1013.4
$$


>>>>>>>>>>>>>>>>>>>>>>>>>>>> KEY <<<<<<<<<<<<<<<<<<<<<<<<<<<
>                                                          <
>     SKY/WX - Sky Condition/Present Weather               <
>     TMP    - Temperature in Fahrenheit                   <
>     DP     - Dew Point in Fahrenheit                     <
>     RH     - Relative Humidity in Percent                <
>     WIND   - Direction (from) and Speed in MPH           <
>     PRES   - Mean Sea Level Pressure (inches of Hg)      <
>     WCI    - Wind Chill Index                            <
>     VSB    - VISIBILITY IN MILES                         <
>     HX     - HEAT INDEX                                  <
>     TC     - TEMPERATURE IN CELSIUS                      <
>     VRB    - VARIABLE WIND DIRECTION                     <
>                                                          <
>>>>>>>>>>>>>>>>>>>>>>>>>>>> KEY <<<<<<<<<<<<<<<<<<<<<<<<<<<



USA.gov is the U.S. government's official web portal to all federal, state and local government web resources and services.